• în Republica Moldova
  • Lista ţărilor
  • Pe 7 zile
  • Temperatura apei
  • Hartă satelitară
  • Meteo pe hartă
  • Widget-uri
  • user-avatar
    Intrare

    Meteo pe oră la Kaprun

    Astăzi, 19 Iunie, Marţi

    Timp Temperatura Precipitaţii Vânt Presiune Umiditate
    00:00 +4°C° 0 mm 2 m/s 601 mmHg 94%
    01:00 +4°C° 0 mm 2 m/s 601 mmHg 94%
    02:00 +4°C° 0 mm 2 m/s 601 mmHg 94%
    03:00 +4°C° 0 mm 2 m/s 601 mmHg 94%
    04:00 +4°C° 0 mm 2 m/s 601 mmHg 94%
    05:00 +5°C° 0 mm 2 m/s 602 mmHg 88%
    06:00 +7°C° 0 mm 2 m/s 603 mmHg 83%
    07:00 +9°C° 0 mm 2 m/s 604 mmHg 85%
    08:00 +10°C° 0,1 mm 2 m/s 604 mmHg 78%
    09:00 +13°C° 0,1 mm 2 m/s 605 mmHg 71%
    10:00 +14°C° 0,1 mm 2 m/s 605 mmHg 64%
    11:00 +15°C° 0 mm 2 m/s 606 mmHg 62%
    12:00 +15°C° 0 mm 2 m/s 606 mmHg 59%
    13:00 +16°C° 0 mm 2 m/s 606 mmHg 58%
    14:00 +16°C° 0 mm 2 m/s 606 mmHg 59%
    15:00 +16°C° 0 mm 2 m/s 606 mmHg 60%
    16:00 +16°C° 0 mm 2 m/s 606 mmHg 61%
    17:00 +15°C° 0 mm 2 m/s 605 mmHg 67%
    18:00 +14°C° 0 mm 2 m/s 605 mmHg 74%
    19:00 +13°C° 0 mm 2 m/s 604 mmHg 81%
    20:00 +10°C° 0 mm 2 m/s 604 mmHg 86%
    21:00 +10°C° 0 mm 1 m/s 604 mmHg 91%
    22:00 +8°C° 0 mm 1 m/s 603 mmHg 96%
    23:00 +8°C° 0 mm 1 m/s 603 mmHg 96%

    Mâine, 20 Iunie, Miercuri

    Timp Temperatura Precipitaţii Vânt Presiune Umiditate
    00:00 +7°C° 0 mm 1 m/s 603 mmHg 96%
    01:00 +7°C° 0 mm 1 m/s 603 mmHg 96%
    02:00 +6°C° 0 mm 1 m/s 602 mmHg 95%
    03:00 +6°C° 0 mm 1 m/s 602 mmHg 94%
    04:00 +6°C° 0 mm 1 m/s 602 mmHg 94%
    05:00 +8°C° 0 mm 1 m/s 603 mmHg 87%
    06:00 +9°C° 0 mm 0 m/s 604 mmHg 81%
    07:00 +11°C° 0 mm 0 m/s 604 mmHg 74%
    08:00 +13°C° 0 mm 0 m/s 605 mmHg 66%
    09:00 +16°C° 0 mm 1 m/s 606 mmHg 58%
    10:00 +19°C° 0 mm 1 m/s 606 mmHg 50%
    11:00 +20°C° 0 mm 1 m/s 606 mmHg 49%
    12:00 +20°C° 0 mm 1 m/s 606 mmHg 48%
    13:00 +21°C° 0 mm 1 m/s 606 mmHg 46%
    14:00 +20°C° 0,2 mm 1 m/s 606 mmHg 52%
    15:00 +19°C° 0,2 mm 1 m/s 605 mmHg 57%
    16:00 +19°C° 0,2 mm 1 m/s 605 mmHg 62%
    17:00 +18°C° 0,7 mm 1 m/s 604 mmHg 69%
    18:00 +16°C° 0,7 mm 1 m/s 604 mmHg 77%
    19:00 +15°C° 0,7 mm 1 m/s 604 mmHg 84%
    20:00 +13°C° 0,3 mm 1 m/s 603 mmHg 88%
    21:00 +11°C° 0,3 mm 1 m/s 603 mmHg 91%
    22:00 +10°C° 0,3 mm 1 m/s 602 mmHg 95%
    23:00 +9°C° 0 mm 1 m/s 602 mmHg 95%

    Poimâine, 21 Iunie, Joi

    Timp Temperatura Precipitaţii Vânt Presiune Umiditate
    00:00 +9°C° 0 mm 1 m/s 602 mmHg 95%
    01:00 +9°C° 0 mm 1 m/s 601 mmHg 95%
    02:00 +8°C° 0 mm 1 m/s 601 mmHg 95%
    03:00 +8°C° 0 mm 1 m/s 600 mmHg 95%
    04:00 +8°C° 0 mm 1 m/s 600 mmHg 94%
    05:00 +10°C° 0 mm 1 m/s 601 mmHg 89%
    06:00 +12°C° 0 mm 1 m/s 602 mmHg 84%
    07:00 +14°C° 0 mm 1 m/s 602 mmHg 79%
    08:00 +15°C° 0,1 mm 1 m/s 603 mmHg 72%
    09:00 +18°C° 0,1 mm 1 m/s 603 mmHg 66%
    10:00 +20°C° 0,1 mm 1 m/s 604 mmHg 59%
    11:00 +20°C° 1,2 mm 1 m/s 603 mmHg 61%
    12:00 +20°C° 1,2 mm 1 m/s 603 mmHg 63%
    13:00 +20°C° 1,2 mm 1 m/s 602 mmHg 66%
    14:00 +18°C° 2,1 mm 2 m/s 602 mmHg 71%
    15:00 +17°C° 2,1 mm 2 m/s 601 mmHg 77%
    16:00 +16°C° 2,1 mm 2 m/s 600 mmHg 83%
    17:00 +15°C° 1,6 mm 2 m/s 600 mmHg 87%
    18:00 +13°C° 1,6 mm 2 m/s 600 mmHg 91%
    19:00 +12°C° 1,6 mm 2 m/s 599 mmHg 94%
    20:00 +10°C° 0,8 mm 2 m/s 600 mmHg 96%
    21:00 +10°C° 0,8 mm 2 m/s 600 mmHg 97%
    22:00 +9°C° 0,8 mm 2 m/s 600 mmHg 98%
    23:00 +8°C° 0,3 mm 2 m/s 600 mmHg 98%

    22 Iunie, Vineri

    Timp Temperatura Precipitaţii Vânt Presiune Umiditate
    00:00 +8°C° 0,3 mm 2 m/s 599 mmHg 98%
    01:00 +7°C° 0,3 mm 2 m/s 599 mmHg 98%
    02:00 +6°C° 0,1 mm 2 m/s 599 mmHg 98%
    03:00 +5°C° 0,1 mm 2 m/s 599 mmHg 98%
    04:00 +5°C° 0,1 mm 2 m/s 598 mmHg 98%
    05:00 +4°C° 0,1 mm 2 m/s 598 mmHg 97%
    06:00 +4°C° 0,1 mm 2 m/s 598 mmHg 95%
    07:00 +4°C° 0,1 mm 2 m/s 598 mmHg 94%
    08:00 +4°C° 0,1 mm 3 m/s 599 mmHg 90%
    09:00 +4°C° 0,1 mm 3 m/s 599 mmHg 85%
    10:00 +5°C° 0,1 mm 3 m/s 599 mmHg 81%
    11:00 +7°C° 0 mm 3 m/s 600 mmHg 74%
    12:00 +8°C° 0 mm 3 m/s 600 mmHg 67%
    13:00 +8°C° 0 mm 3 m/s 601 mmHg 60%
    14:00 +8°C° 0 mm 3 m/s 601 mmHg 59%
    15:00 +8°C° 0 mm 3 m/s 601 mmHg 57%
    16:00 +8°C° 0 mm 3 m/s 601 mmHg 56%
    17:00 +7°C° 0,1 mm 3 m/s 600 mmHg 63%
    18:00 +5°C° 0,1 mm 3 m/s 600 mmHg 70%
    19:00 +4°C° 0,1 mm 2 m/s 600 mmHg 78%
    20:00 +3°C° 0,1 mm 2 m/s 600 mmHg 82%
    21:00 +2°C° 0,1 mm 2 m/s 600 mmHg 86%
    22:00 +2°C° 0,1 mm 2 m/s 600 mmHg 90%
    23:00 +1°C° 0 mm 2 m/s 600 mmHg 91%

    23 Iunie, Sâmbătă

    Timp Temperatura Precipitaţii Vânt Presiune Umiditate
    00:00 -1°C° 0 mm 2 m/s 600 mmHg 92%
    01:00 -1°C° 0 mm 2 m/s 599 mmHg 93%
    02:00 -1°C° 0 mm 2 m/s 599 mmHg 94%
    03:00 -2°C° 0 mm 2 m/s 599 mmHg 94%
    04:00 -2°C° 0 mm 2 m/s 599 mmHg 94%
    05:00 +1°C° 0 mm 2 m/s 600 mmHg 87%
    06:00 +3°C° 0 mm 1 m/s 600 mmHg 79%
    07:00 +5°C° 0 mm 1 m/s 601 mmHg 71%
    08:00 +7°C° 0 mm 1 m/s 601 mmHg 62%
    09:00 +8°C° 0 mm 2 m/s 602 mmHg 52%
    10:00 +10°C° 0 mm 2 m/s 603 mmHg 43%
    11:00 +12°C° 0 mm 2 m/s 603 mmHg 41%
    12:00 +13°C° 0 mm 2 m/s 603 mmHg 39%
    13:00 +12°C° 0 mm 3 m/s 603 mmHg 37%
    14:00 +12°C° 0 mm 3 m/s 603 mmHg 40%
    15:00 +12°C° 0 mm 3 m/s 603 mmHg 43%
    16:00 +11°C° 0 mm 3 m/s 602 mmHg 47%
    17:00 +10°C° 0 mm 3 m/s 602 mmHg 56%
    18:00 +8°C° 0 mm 2 m/s 601 mmHg 66%
    19:00 +7°C° 0 mm 2 m/s 601 mmHg 75%
    20:00 +6°C° 0 mm 2 m/s 600 mmHg 82%
    21:00 +5°C° 0 mm 1 m/s 600 mmHg 88%
    22:00 +4°C° 0 mm 1 m/s 600 mmHg 95%
    23:00 +3°C° 0 mm 1 m/s 599 mmHg 95%

    24 Iunie, Duminică

    Timp Temperatura Precipitaţii Vânt Presiune Umiditate
    00:00 +3°C° 0 mm 1 m/s 599 mmHg 96%
    01:00 +2°C° 0 mm 1 m/s 599 mmHg 96%
    02:00 +2°C° 0 mm 1 m/s 599 mmHg 96%
    03:00 +2°C° 0 mm 1 m/s 598 mmHg 96%
    04:00 +1°C° 0 mm 1 m/s 598 mmHg 96%
    05:00 +3°C° 0 mm 1 m/s 599 mmHg 88%
    06:00 +5°C° 0 mm 1 m/s 599 mmHg 80%
    07:00 +6°C° 0 mm 1 m/s 600 mmHg 73%
    08:00 +8°C° 0 mm 1 m/s 601 mmHg 64%
    09:00 +10°C° 0 mm 1 m/s 602 mmHg 56%
    10:00 +12°C° 0 mm 1 m/s 602 mmHg 48%
    11:00 +12°C° 0,1 mm 1 m/s 602 mmHg 50%
    12:00 +12°C° 0,1 mm 2 m/s 602 mmHg 52%
    13:00 +12°C° 0,1 mm 2 m/s 602 mmHg 54%
    14:00 +10°C° 0,3 mm 2 m/s 601 mmHg 59%
    15:00 +10°C° 0,3 mm 2 m/s 601 mmHg 64%
    16:00 +10°C° 0,3 mm 2 m/s 601 mmHg 69%
    17:00 +9°C° 0,3 mm 2 m/s 601 mmHg 75%
    18:00 +8°C° 0,3 mm 2 m/s 600 mmHg 81%
    19:00 +8°C° 0,3 mm 1 m/s 600 mmHg 87%
    20:00 +7°C° 0,1 mm 1 m/s 600 mmHg 90%
    21:00 +6°C° 0,1 mm 1 m/s 600 mmHg 93%
    22:00 +5°C° 0,1 mm 1 m/s 600 mmHg 97%
    23:00 +4°C° 0 mm 1 m/s 599 mmHg 97%
    Arată mai mult